Weather Service Report


333 
ASUS41 KRLX 251710
RWRRLX
West Virginia Regional Weather Roundup
National Weather Service Charleston WV
100 PM EDT MON MAY 25 2015

Note: "fair" indicates few or no clouds below 12,000 feet with no
significant weather and/or obstructions to visibility.

WVZ003-251800-
Northern Panhandle of West Virginia
  
CITY           SKY/WX    TMP DP  RH WIND       PRES   REMARKS
WHEELING       NOT AVBL                                               
$$

WVZ009-251800-
Northwest West Virginia
  
CITY           SKY/WX    TMP DP  RH WIND       PRES   REMARKS
PARKERSBURG    PTSUNNY   80  58  46 SW9       30.21F                  
$$

WVZ006-251800-
Western West Virginia
  
CITY           SKY/WX    TMP DP  RH WIND       PRES   REMARKS
HUNTINGTON     PTSUNNY   81  59  47 SW9       30.19S                  
$$

WVZ015-251800-
West Central West Virginia
  
CITY           SKY/WX    TMP DP  RH WIND       PRES   REMARKS
CHARLESTON     MOSUNNY   84  56  38 W9        30.20F                  
$$

WVZ022-031-251800-
North Central West Virginia
  
CITY           SKY/WX    TMP DP  RH WIND       PRES   REMARKS
CLARKSBURG     SUNNY     81  57  43 SW7       30.21F                  
MORGANTOWN     MOSUNNY   82  54  37 VRB6      30.22F                  
$$

WVZ025-035-042-045-251800-
Southern West Virginia
  
CITY           SKY/WX    TMP DP  RH WIND       PRES   REMARKS
BECKLEY        SUNNY     77  51  40 VRB6      30.30F                  
LOGAN            N/A     79  57  47 VRB5G12   30.21F                  
BLUEFIELD      SUNNY     79  51  37 VRB7      30.32F                  
LEWISBURG      SUNNY     77  54  43 S5        30.31F                  
$$

WVZ047-251800-
Northern Mountains of West Virginia
  
CITY           SKY/WX    TMP DP  RH WIND       PRES   REMARKS
ELKINS         SUNNY     80  51  36 S6        30.25F                  
$$

WVZ052-251800-
Eastern Panhandle of West Virginia
  
CITY           SKY/WX    TMP DP  RH WIND       PRES   REMARKS
MARTINSBURG    SUNNY     81  58  45 S9        30.22F                  
PETERSBURG     SUNNY     82  53  36 SE3       30.21F                  
$$

Return to Home page


Western Regional Climate Center, wrcc@dri.edu